| time (UTC) | temp C | wind direction | speed KPH | gust KPH | rain 1hr cm | rain 24hr cm | rain mn cm | humidity % | barometer mb |
| 20260507175914 | 22 | 0 | 8.0 | 0.0 | 0.00 | 0.00 | 0.00 | 50 | 1011.0 |
| 20260507174813 | 22 | 0 | 8.0 | 0.0 | 0.00 | 0.00 | 0.00 | 50 | 1011.0 |
| 20260507173713 | 22 | 0 | 8.0 | 0.0 | 0.00 | 0.00 | 0.00 | 50 | 1011.0 |
| 20260507172612 | 22 | 0 | 8.0 | 0.0 | 0.00 | 0.00 | 0.00 | 50 | 1012.0 |
| 20260507171512 | 22 | 0 | 8.0 | 0.0 | 0.00 | 0.00 | 0.00 | 51 | 1012.0 |
| 20260507170411 | 21 | 0 | 8.0 | 0.0 | 0.00 | 0.00 | 0.00 | 53 | 1012.0 |
| 20260507165310 | 21 | 0 | 8.0 | 0.0 | 0.00 | 0.00 | 0.00 | 53 | 1012.0 |
| 20260507164210 | 21 | 0 | 8.0 | 0.0 | 0.00 | 0.00 | 0.00 | 53 | 1013.0 |
| 20260507163109 | 21 | 0 | 8.0 | 0.0 | 0.00 | 0.00 | 0.00 | 55 | 1013.0 |
| 20260507162008 | 21 | 0 | 8.0 | 0.0 | 0.00 | 0.00 | 0.00 | 56 | 1014.0 |
| 20260507160908 | 21 | 0 | 8.0 | 0.0 | 0.00 | 0.00 | 0.00 | 59 | 1014.0 |
| 20260507155807 | 21 | 0 | 8.0 | 0.0 | 0.00 | 0.00 | 0.00 | 63 | 1014.0 |
| 20260507154706 | 21 | 0 | 8.0 | 0.0 | 0.00 | 0.00 | 0.00 | 63 | 1014.0 |
| 20260507153604 | 20 | 0 | 8.0 | 0.0 | 0.00 | 0.00 | 0.00 | 66 | 1014.0 |
| 20260507152501 | 20 | 0 | 8.0 | 0.0 | 0.00 | 0.00 | 0.00 | 67 | 1015.0 |
| 20260507151400 | 20 | 0 | 8.0 | 0.0 | 0.00 | 0.00 | 0.00 | 69 | 1015.0 |
| 20260507150259 | 20 | 92 | 4.8 | 8.0 | 0.00 | 0.00 | 0.00 | 72 | 1015.0 |
| 20260507145158 | 20 | 92 | 4.8 | 8.0 | 0.00 | 0.00 | 0.00 | 72 | 1015.0 |
| 20260507144057 | 17 | 140 | 4.8 | 0.0 | 0.00 | 0.00 | 0.00 | 83 | 1015.0 |
| 20260507142956 | 17 | 140 | 4.8 | 0.0 | 0.00 | 0.00 | 0.00 | 83 | 1016.0 |
| 20260507141856 | 17 | 140 | 4.8 | 0.0 | 0.00 | 0.00 | 0.00 | 85 | 1016.0 |
| 20260507140755 | 17 | 140 | 4.8 | 0.0 | 0.00 | 0.00 | 0.00 | 87 | 1016.0 |
| 20260507135655 | 17 | 79 | 4.8 | 6.4 | 0.00 | 0.00 | 0.00 | 79 | 1016.0 |
| 20260507134554 | 17 | 79 | 4.8 | 6.4 | 0.00 | 0.00 | 0.00 | 80 | 1016.0 |
| 20260507133453 | 13 | 0 | 1.6 | 0.0 | 0.00 | 0.00 | 0.00 | 10 | 1016.0 |
| 20260507132351 | 13 | 0 | 1.6 | 0.0 | 0.00 | 0.00 | 0.00 | 10 | 1016.0 |
| 20260507131248 | 13 | 0 | 1.6 | 0.0 | 0.00 | 0.00 | 0.00 | 10 | 1016.0 |
| 20260507130148 | 12 | 200 | 4.8 | 0.0 | 0.00 | 0.00 | 0.00 | 10 | 1016.0 |
| 20260507125048 | 12 | 200 | 4.8 | 0.0 | 0.00 | 0.00 | 0.00 | 10 | 1016.0 |
| 20260507123947 | 13 | 200 | 4.8 | 0.0 | 0.00 | 0.00 | 0.00 | 99 | 1016.0 |
| 20260507122846 | 13 | 200 | 4.8 | 0.0 | 0.00 | 0.00 | 0.00 | 99 | 1016.0 |
| 20260507121745 | 13 | 200 | 4.8 | 0.0 | 0.00 | 0.00 | 0.00 | 99 | 1016.0 |
| 20260507120644 | 13 | 200 | 4.8 | 0.0 | 0.00 | 0.00 | 0.00 | 99 | 1016.0 |
| 20260507115542 | 13 | 350 | 4.8 | 0.0 | 0.00 | 0.00 | 0.00 | 99 | 1016.0 |
| 20260507114440 | 13 | 350 | 4.8 | 0.0 | 0.00 | 0.00 | 0.00 | 99 | 1016.0 |
| 20260507113339 | 13 | 350 | 4.8 | 0.0 | 0.00 | 0.00 | 0.00 | 99 | 1016.0 |
| 20260507112239 | 13 | 350 | 4.8 | 0.0 | 0.00 | 0.00 | 0.00 | 99 | 1016.0 |
| 20260507111138 | 13 | 350 | 4.8 | 0.0 | 0.00 | 0.00 | 0.00 | 99 | 1016.0 |
| 20260507110038 | 13 | 350 | 4.8 | 0.0 | 0.00 | 0.00 | 0.00 | 99 | 1016.0 |
| 20260507104937 | 13 | 350 | 4.8 | 0.0 | 0.00 | 0.00 | 0.00 | 99 | 1016.0 |
| 20260507103837 | 13 | 350 | 4.8 | 0.0 | 0.00 | 0.00 | 0.00 | 99 | 1016.0 |
| 20260507102736 | 13 | 350 | 4.8 | 0.0 | 0.00 | 0.00 | 0.00 | 99 | 1016.0 |
| 20260507101636 | 13 | 350 | 4.8 | 0.0 | 0.00 | 0.00 | 0.00 | 99 | 1016.0 |
| 20260507100534 | 13 | 350 | 4.8 | 0.0 | 0.00 | 0.00 | 0.00 | 99 | 1016.0 |
| 20260507095434 | 13 | 350 | 4.8 | 0.0 | 0.00 | 0.00 | 0.00 | 99 | 1016.0 |
| 20260507094334 | 13 | 350 | 4.8 | 0.0 | 0.00 | 0.00 | 0.00 | 99 | 1016.0 |
| 20260507093233 | 13 | 350 | 4.8 | 0.0 | 0.00 | 0.00 | 0.00 | 99 | 1016.0 |
| 20260507092133 | 13 | 350 | 4.8 | 0.0 | 0.00 | 0.00 | 0.00 | 99 | 1016.0 |
| 20260507091031 | 13 | 350 | 4.8 | 0.0 | 0.00 | 0.00 | 0.00 | 99 | 1016.0 |
| 20260507085931 | 13 | 350 | 4.8 | 0.0 | 0.00 | 0.00 | 0.00 | 99 | 1016.0 |
| 20260507084830 | 13 | 350 | 4.8 | 0.0 | 0.00 | 0.00 | 0.00 | 99 | 1016.0 |
| 20260507083729 | 13 | 350 | 4.8 | 0.0 | 0.00 | 0.00 | 0.00 | 99 | 1016.0 |
| 20260507082628 | 13 | 350 | 4.8 | 0.0 | 0.00 | 0.00 | 0.00 | 99 | 1016.0 |
| 20260507081527 | 14 | 350 | 4.8 | 0.0 | 0.00 | 0.00 | 0.00 | 99 | 1016.0 |
| 20260507080427 | 15 | 350 | 4.8 | 0.0 | 0.00 | 0.00 | 0.00 | 99 | 1016.0 |
| 20260507075326 | 15 | 350 | 4.8 | 0.0 | 0.00 | 0.00 | 0.00 | 99 | 1016.0 |
| 20260507074226 | 15 | 350 | 4.8 | 0.0 | 0.00 | 0.00 | 0.00 | 99 | 1016.0 |
| 20260507073125 | 15 | 350 | 4.8 | 0.0 | 0.00 | 0.00 | 0.00 | 99 | 1016.0 |
| 20260507072023 | 15 | 350 | 4.8 | 0.0 | 0.00 | 0.00 | 0.00 | 99 | 1016.0 |
| 20260507070920 | 15 | 350 | 4.8 | 0.0 | 0.00 | 0.00 | 0.00 | 99 | 1016.0 |
| 20260507065820 | 16 | 350 | 3.2 | 0.0 | 0.00 | 0.00 | 0.00 | 93 | 1016.0 |
| 20260507064718 | 16 | 350 | 3.2 | 0.0 | 0.00 | 0.00 | 0.00 | 93 | 1016.0 |
| 20260507063618 | 16 | 350 | 4.8 | 0.0 | 0.00 | 0.00 | 0.00 | 93 | 1017.0 |
| 20260507062517 | 16 | 350 | 4.8 | 0.0 | 0.00 | 0.00 | 0.00 | 93 | 1017.0 |
| 20260507061416 | 16 | 350 | 4.8 | 0.0 | 0.00 | 0.00 | 0.00 | 93 | 1017.0 |
| 20260507060315 | 16 | 350 | 4.8 | 0.0 | 0.00 | 0.00 | 0.00 | 93 | 1017.0 |
| 20260507055213 | 16 | 350 | 4.8 | 0.0 | 0.00 | 0.00 | 0.00 | 93 | 1017.0 |
| 20260507054113 | 16 | 350 | 4.8 | 0.0 | 0.00 | 0.00 | 0.00 | 93 | 1017.0 |
| 20260507053010 | 16 | 350 | 4.8 | 0.0 | 0.00 | 0.00 | 0.00 | 93 | 1017.0 |
| 20260507051909 | 16 | 350 | 4.8 | 0.0 | 0.00 | 0.00 | 0.00 | 93 | 1018.0 |
| 20260507050808 | 16 | 350 | 4.8 | 0.0 | 0.00 | 0.00 | 0.00 | 92 | 1018.0 |
| 20260507045707 | 16 | 350 | 4.8 | 0.0 | 0.00 | 0.00 | 0.00 | 92 | 1018.0 |
| 20260507044607 | 16 | 350 | 4.8 | 0.0 | 0.00 | 0.00 | 0.00 | 92 | 1018.0 |
| 20260507043506 | 16 | 350 | 4.8 | 0.0 | 0.00 | 0.00 | 0.00 | 91 | 1018.0 |
| 20260507042405 | 16 | 350 | 4.8 | 0.0 | 0.00 | 0.00 | 0.00 | 89 | 1018.0 |
| 20260507041303 | 16 | 350 | 4.8 | 0.0 | 0.00 | 0.00 | 0.00 | 87 | 1018.0 |
| 20260507040202 | 16 | 350 | 4.8 | 0.0 | 0.00 | 0.00 | 0.00 | 83 | 1018.0 |
| 20260507035102 | 16 | 350 | 4.8 | 0.0 | 0.00 | 0.00 | 0.00 | 83 | 1018.0 |
| 20260507033956 | 16 | 350 | 4.8 | 0.0 | 0.00 | 0.00 | 0.00 | 84 | 1018.0 |
| 20260507032855 | 16 | 350 | 4.8 | 0.0 | 0.00 | 0.00 | 0.00 | 85 | 1017.0 |
| 20260507031755 | 16 | 350 | 4.8 | 0.0 | 0.00 | 0.00 | 0.00 | 86 | 1017.0 |
| 20260507030654 | 16 | 350 | 4.8 | 0.0 | 0.00 | 0.00 | 0.00 | 87 | 1017.0 |
| 20260507025554 | 16 | 350 | 4.8 | 0.0 | 0.00 | 0.00 | 0.00 | 87 | 1017.0 |
| 20260507024453 | 16 | 350 | 4.8 | 0.0 | 0.00 | 0.00 | 0.00 | 87 | 1017.0 |
| 20260507023352 | 16 | 350 | 4.8 | 0.0 | 0.00 | 0.00 | 0.00 | 86 | 1017.0 |
| 20260507022249 | 16 | 350 | 4.8 | 0.0 | 0.00 | 0.00 | 0.00 | 85 | 1017.0 |
| 20260507021149 | 16 | 350 | 4.8 | 0.0 | 0.00 | 0.00 | 0.00 | 83 | 1017.0 |
| 20260507020048 | 16 | 350 | 4.8 | 0.0 | 0.00 | 0.00 | 0.00 | 80 | 1017.0 |
| 20260507014948 | 16 | 350 | 4.8 | 0.0 | 0.00 | 0.00 | 0.00 | 80 | 1017.0 |
| 20260507013847 | 16 | 350 | 4.8 | 0.0 | 0.00 | 0.00 | 0.00 | 79 | 1017.0 |
| 20260507012746 | 16 | 350 | 4.8 | 0.0 | 0.00 | 0.00 | 0.00 | 78 | 1016.0 |
| 20260507011644 | 16 | 350 | 4.8 | 0.0 | 0.00 | 0.00 | 0.00 | 78 | 1016.0 |
| 20260507010543 | 16 | 350 | 4.8 | 0.0 | 0.00 | 0.00 | 0.00 | 78 | 1016.0 |
| 20260507005443 | 17 | 0 | 3.2 | 0.0 | 0.00 | 0.00 | 0.00 | 69 | 1016.0 |
| 20260507004341 | 17 | 0 | 3.2 | 0.0 | 0.00 | 0.00 | 0.00 | 69 | 1016.0 |
| 20260507003239 | 17 | 0 | 3.2 | 0.0 | 0.00 | 0.00 | 0.00 | 72 | 1016.0 |
| 20260507002139 | 17 | 0 | 3.2 | 0.0 | 0.00 | 0.00 | 0.00 | 72 | 1015.0 |
| 20260507001037 | 17 | 0 | 3.2 | 0.0 | 0.00 | 0.00 | 0.00 | 72 | 1015.0 |
| 20260506235937 | 20 | 0 | 1.6 | 0.0 | 0.00 | 0.00 | 0.00 | 56 | 1015.0 |
| 20260506234836 | 20 | 0 | 1.6 | 0.0 | 0.00 | 0.00 | 0.00 | 56 | 1015.0 |
| 20260506233736 | 20 | 0 | 1.6 | 0.0 | 0.00 | 0.00 | 0.00 | 56 | 1015.0 |
| 20260506232635 | 20 | 0 | 1.6 | 0.0 | 0.00 | 0.00 | 0.00 | 56 | 1014.0 |
| 20260506231535 | 20 | 0 | 1.6 | 0.0 | 0.00 | 0.00 | 0.00 | 56 | 1014.0 |
| 20260506230433 | 21 | 0 | 4.8 | 0.0 | 0.00 | 0.00 | 0.00 | 49 | 1014.0 |
| 20260506225332 | 21 | 0 | 4.8 | 0.0 | 0.00 | 0.00 | 0.00 | 49 | 1014.0 |
| 20260506224232 | 21 | 0 | 4.8 | 0.0 | 0.00 | 0.00 | 0.00 | 49 | 1013.0 |
| 20260506223131 | 20 | 0 | 4.8 | 0.0 | 0.00 | 0.00 | 0.00 | 48 | 1013.0 |
| 20260506222032 | 20 | 0 | 4.8 | 0.0 | 0.00 | 0.00 | 0.00 | 47 | 1012.0 |
| 20260506220928 | 20 | 81 | 4.8 | 9.7 | 0.00 | 0.00 | 0.00 | 46 | 1012.0 |
| 20260506215827 | 22 | 130 | 8.0 | 0.0 | 0.00 | 0.00 | 0.00 | 43 | 1012.0 |
| 20260506214726 | 22 | 130 | 8.0 | 0.0 | 0.00 | 0.00 | 0.00 | 43 | 1012.0 |
| 20260506213625 | 23 | 0 | 12.9 | 33.8 | 0.00 | 0.00 | 0.00 | 44 | 1011.0 |
| 20260506212525 | 23 | 0 | 12.9 | 33.8 | 0.00 | 0.00 | 0.00 | 44 | 1010.0 |
| 20260506210222 | 23 | 0 | 12.9 | 33.8 | 0.00 | 0.00 | 0.00 | 44 | 1010.0 |
| 20260506205119 | 23 | 0 | 12.9 | 33.8 | 0.00 | 0.00 | 0.00 | 44 | 1010.0 |
| 20260506204018 | 23 | 0 | 12.9 | 33.8 | 0.00 | 0.00 | 0.00 | 45 | 1011.0 |
| 20260506202918 | 23 | 0 | 12.9 | 33.8 | 0.00 | 0.00 | 0.00 | 46 | 1010.0 |
| 20260506201817 | 23 | 0 | 12.9 | 33.8 | 0.00 | 0.00 | 0.00 | 48 | 1010.0 |
| 20260506200714 | 22 | 0 | 12.9 | 33.8 | 0.00 | 0.00 | 0.00 | 50 | 1010.0 |
| 20260506195613 | 22 | 0 | 9.7 | 0.0 | 0.00 | 0.00 | 0.00 | 54 | 1010.0 |
| 20260506194511 | 22 | 0 | 9.7 | 0.0 | 0.00 | 0.00 | 0.00 | 54 | 1010.0 |
| 20260506193410 | 22 | 0 | 9.7 | 0.0 | 0.00 | 0.00 | 0.00 | 54 | 1010.0 |
| 20260506192310 | 22 | 0 | 9.7 | 0.0 | 0.00 | 0.00 | 0.00 | 54 | 1010.0 |
| 20260506191209 | 22 | 0 | 9.7 | 0.0 | 0.00 | 0.00 | 0.00 | 55 | 1010.0 |
| 20260506190108 | 22 | 0 | 8.0 | 0.0 | 0.00 | 0.00 | 0.00 | 57 | 1011.0 |
| 20260506185008 | 22 | 0 | 8.0 | 0.0 | 0.00 | 0.00 | 0.00 | 57 | 1011.0 |
| 20260506183906 | 22 | 0 | 8.0 | 0.0 | 0.00 | 0.00 | 0.00 | 57 | 1011.0 |
| 20260506182805 | 22 | 0 | 8.0 | 0.0 | 0.00 | 0.00 | 0.00 | 58 | 1012.0 |
| 20260506181704 | 21 | 0 | 8.0 | 0.0 | 0.00 | 0.00 | 0.00 | 59 | 1012.0 |